Time,TemperatureF,DewpointF,PressureIn,WindDirection,WindDirectionDegrees,WindSpeedMPH,WindSpeedGustMPH,Humidity,HourlyPrecipIn,Conditions,Clouds,dailyrainin,SolarRadiationWatts/m^2,SoftwareType,DateUTC
2013-04-15 00:00:00,45.2,41.0,29.91,WNW,302,0.0,5.0,85,0.00,,,0.00,0,weatherlink.com 1.10,2013-04-15 07:00:00,
2013-04-15 00:45:00,45.2,41.0,29.91,WNW,286,0.0,2.0,85,0.00,,,0.00,0,weatherlink.com 1.10,2013-04-15 07:45:00,
2013-04-15 01:00:00,44.9,41.0,29.91,WNW,288,0.0,4.0,85,0.00,,,0.00,0,weatherlink.com 1.10,2013-04-15 08:00:00,
2013-04-15 01:15:00,44.5,40.0,29.91,WNW,288,0.0,3.0,85,0.00,,,0.00,0,weatherlink.com 1.10,2013-04-15 08:15:00,
2013-04-15 01:45:00,43.4,39.0,29.92,WNW,291,1.0,3.0,85,0.00,,,0.00,0,weatherlink.com 1.10,2013-04-15 08:45:00,
2013-04-15 02:00:00,43.3,39.0,29.92,WNW,291,0.0,2.0,85,0.00,,,0.00,0,weatherlink.com 1.10,2013-04-15 09:00:00,
2013-04-15 02:15:00,43.8,40.0,29.92,WNW,291,0.0,2.0,85,0.00,,,0.00,0,weatherlink.com 1.10,2013-04-15 09:15:00,
2013-04-15 02:30:00,44.0,40.0,29.92,WNW,291,0.0,2.0,85,0.00,,,0.00,0,weatherlink.com 1.10,2013-04-15 09:30:00,
2013-04-15 02:45:00,42.6,38.0,29.92,WNW,291,0.0,3.0,85,0.00,,,0.00,0,weatherlink.com 1.10,2013-04-15 09:45:00,
2013-04-15 03:00:00,43.1,39.0,29.92,NNE,18,3.0,4.0,85,0.00,,,0.00,0,weatherlink.com 1.10,2013-04-15 10:00:00,
2013-04-15 03:15:00,44.0,40.0,29.92,NW,324,3.0,7.0,85,0.00,,,0.00,0,weatherlink.com 1.10,2013-04-15 10:15:00,
2013-04-15 03:30:00,43.8,39.0,29.92,NNW,338,1.0,4.0,84,0.00,,,0.00,0,weatherlink.com 1.10,2013-04-15 10:30:00,
2013-04-15 03:45:00,43.3,39.0,29.93,NNW,344,2.0,4.0,85,0.00,,,0.00,0,weatherlink.com 1.10,2013-04-15 10:45:00,
2013-04-15 04:00:00,43.6,39.0,29.93,NW,317,3.0,9.0,84,0.00,,,0.00,0,weatherlink.com 1.10,2013-04-15 11:00:00,
2013-04-15 04:15:00,44.1,39.0,29.93,NW,320,0.0,6.0,82,0.00,,,0.00,0,weatherlink.com 1.10,2013-04-15 11:15:00,
2013-04-15 04:30:00,43.7,38.0,29.93,NW,323,2.0,5.0,81,0.00,,,0.00,0,weatherlink.com 1.10,2013-04-15 11:30:00,
2013-04-15 04:45:00,43.7,38.0,29.93,NNW,328,3.0,5.0,81,0.00,,,0.00,0,weatherlink.com 1.10,2013-04-15 11:45:00,
2013-04-15 05:00:00,43.4,38.0,29.92,NW,324,4.0,6.0,80,0.00,,,0.00,0,weatherlink.com 1.10,2013-04-15 12:00:00,
2013-04-15 05:15:00,43.6,38.0,29.93,NNW,331,3.0,8.0,80,0.00,,,0.00,0,weatherlink.com 1.10,2013-04-15 12:15:00,
2013-04-15 05:30:00,43.9,37.0,29.93,NW,319,2.0,6.0,78,0.00,,,0.00,0,weatherlink.com 1.10,2013-04-15 12:30:00,
2013-04-15 05:45:00,43.8,37.0,29.93,NNW,338,5.0,7.0,78,0.00,,,0.00,0,weatherlink.com 1.10,2013-04-15 12:45:00,
2013-04-15 06:00:00,43.7,37.0,29.94,NW,312,3.0,6.0,78,0.00,,,0.00,0,weatherlink.com 1.10,2013-04-15 13:00:00,
2013-04-15 06:15:00,43.4,37.0,29.95,NNW,338,1.0,5.0,78,0.00,,,0.00,0,weatherlink.com 1.10,2013-04-15 13:15:00,
2013-04-15 06:30:00,43.4,37.0,29.95,NNW,337,3.0,5.0,77,0.00,,,0.00,0,weatherlink.com 1.10,2013-04-15 13:30:00,
2013-04-15 06:45:00,43.2,36.0,29.96,North,355,3.0,5.0,77,0.00,,,0.00,9,weatherlink.com 1.10,2013-04-15 13:45:00,
2013-04-15 07:01:00,42.8,36.0,29.96,NNW,343,5.0,6.0,78,0.00,,,0.00,19,weatherlink.com 1.10,2013-04-15 14:01:00,
2013-04-15 07:16:00,43.1,36.0,29.96,North,360,1.0,4.0,77,0.00,,,0.00,26,weatherlink.com 1.10,2013-04-15 14:16:00,
2013-04-15 07:31:00,43.3,37.0,29.96,North,5,0.0,3.0,77,0.00,,,0.00,111,weatherlink.com 1.10,2013-04-15 14:31:00,
2013-04-15 07:46:00,43.6,37.0,29.97,NW,313,0.0,3.0,78,0.00,,,0.00,178,weatherlink.com 1.10,2013-04-15 14:46:00,
2013-04-15 09:01:00,49.6,40.0,29.97,West,281,4.0,15.0,69,0.00,,,0.00,469,weatherlink.com 1.10,2013-04-15 16:01:00,
2013-04-15 09:16:00,50.5,39.0,29.97,SW,215,9.0,18.0,65,0.00,,,0.00,527,weatherlink.com 1.10,2013-04-15 16:16:00,
2013-04-15 09:31:00,51.0,38.0,29.97,WNW,293,12.0,17.0,61,0.00,,,0.00,570,weatherlink.com 1.10,2013-04-15 16:31:00,
2013-04-15 10:01:00,51.7,39.0,29.97,WSW,257,13.0,17.0,62,0.00,,,0.00,687,weatherlink.com 1.10,2013-04-15 17:01:00,
2013-04-15 10:16:00,51.0,41.0,29.96,West,272,7.0,15.0,68,0.00,,,0.00,719,weatherlink.com 1.10,2013-04-15 17:16:00,
2013-04-15 10:31:00,51.2,40.0,29.96,North,355,6.0,15.0,66,0.00,,,0.00,751,weatherlink.com 1.10,2013-04-15 17:31:00,
2013-04-15 10:46:00,51.1,41.0,29.97,West,275,6.0,17.0,69,0.00,,,0.00,884,weatherlink.com 1.10,2013-04-15 17:46:00,
2013-04-15 11:01:00,50.6,41.0,29.97,WNW,298,6.0,20.0,69,0.00,,,0.00,909,weatherlink.com 1.10,2013-04-15 18:01:00,
2013-04-15 11:17:00,50.7,41.0,29.97,West,269,9.0,24.0,70,0.00,,,0.00,858,weatherlink.com 1.10,2013-04-15 18:17:00,
2013-04-15 11:31:00,51.0,42.0,29.98,NW,324,7.0,17.0,71,0.00,,,0.00,872,weatherlink.com 1.10,2013-04-15 18:31:00,
2013-04-15 11:46:00,51.3,42.0,29.98,NW,312,3.0,22.0,71,0.00,,,0.00,904,weatherlink.com 1.10,2013-04-15 18:46:00,
2013-04-15 12:02:00,51.0,42.0,29.98,West,261,8.0,20.0,72,0.00,,,0.00,954,weatherlink.com 1.10,2013-04-15 19:02:00,
2013-04-15 12:17:00,51.5,42.0,29.98,WNW,283,14.0,16.0,69,0.00,,,0.00,953,weatherlink.com 1.10,2013-04-15 19:17:00,
2013-04-15 12:47:00,51.7,41.0,29.98,WSW,258,7.0,23.0,68,0.00,,,0.00,1023,weatherlink.com 1.10,2013-04-15 19:47:00,
2013-04-15 13:02:00,53.1,38.0,29.98,West,276,18.0,28.0,56,0.00,,,0.00,956,weatherlink.com 1.10,2013-04-15 20:02:00,
2013-04-15 13:17:00,53.4,38.0,29.99,WNW,285,11.0,23.0,56,0.00,,,0.00,967,weatherlink.com 1.10,2013-04-15 20:17:00,
2013-04-15 13:32:00,53.4,37.0,29.98,WSW,252,21.0,30.0,55,0.00,,,0.00,953,weatherlink.com 1.10,2013-04-15 20:32:00,
2013-04-15 13:47:00,53.1,36.0,29.98,West,279,10.0,29.0,53,0.00,,,0.00,947,weatherlink.com 1.10,2013-04-15 20:47:00,
2013-04-15 14:02:00,53.5,38.0,29.98,NW,320,19.0,26.0,57,0.00,,,0.00,942,weatherlink.com 1.10,2013-04-15 21:02:00,
2013-04-15 14:17:00,53.1,37.0,29.98,SW,218,14.0,27.0,54,0.00,,,0.00,919,weatherlink.com 1.10,2013-04-15 21:17:00,
2013-04-15 14:32:00,53.4,35.0,29.98,WNW,286,11.0,30.0,51,0.00,,,0.00,902,weatherlink.com 1.10,2013-04-15 21:32:00,
2013-04-15 14:47:00,53.6,36.0,29.98,WSW,248,8.0,28.0,51,0.00,,,0.00,893,weatherlink.com 1.10,2013-04-15 21:47:00,
2013-04-15 15:18:00,53.0,36.0,29.98,NW,313,15.0,32.0,52,0.00,,,0.00,823,weatherlink.com 1.10,2013-04-15 22:18:00,
2013-04-15 16:49:00,52.1,38.0,29.96,NW,304,10.0,27.0,59,0.00,,,0.00,578,weatherlink.com 1.10,2013-04-15 23:49:00,
2013-04-15 17:02:00,51.9,39.0,29.96,WNW,296,13.0,25.0,61,0.00,,,0.00,534,weatherlink.com 1.10,2013-04-16 00:02:00,
2013-04-15 17:17:00,51.7,39.0,29.95,West,277,13.0,25.0,62,0.00,,,0.00,487,weatherlink.com 1.10,2013-04-16 00:17:00,
2013-04-15 17:32:00,51.4,39.0,29.95,West,277,10.0,29.0,62,0.00,,,0.00,432,weatherlink.com 1.10,2013-04-16 00:32:00,
2013-04-15 17:47:00,50.9,39.0,29.95,WNW,285,12.0,25.0,65,0.00,,,0.00,381,weatherlink.com 1.10,2013-04-16 00:47:00,
2013-04-15 18:02:00,50.8,40.0,29.96,WNW,297,10.0,23.0,66,0.00,,,0.00,325,weatherlink.com 1.10,2013-04-16 01:02:00,
2013-04-15 18:17:00,51.1,40.0,29.95,WSW,255,10.0,19.0,65,0.00,,,0.00,271,weatherlink.com 1.10,2013-04-16 01:17:00,
2013-04-15 18:32:00,51.2,40.0,29.95,West,265,6.0,16.0,65,0.00,,,0.00,218,weatherlink.com 1.10,2013-04-16 01:32:00,
2013-04-15 18:47:00,50.9,40.0,29.95,NW,310,9.0,17.0,66,0.00,,,0.00,155,weatherlink.com 1.10,2013-04-16 01:47:00,
2013-04-15 19:02:00,49.9,40.0,29.96,West,275,8.0,17.0,68,0.00,,,0.00,98,weatherlink.com 1.10,2013-04-16 02:02:00,
2013-04-15 19:17:00,49.7,39.0,29.96,WNW,296,7.0,16.0,68,0.00,,,0.00,54,weatherlink.com 1.10,2013-04-16 02:17:00,
2013-04-15 19:32:00,48.7,39.0,29.96,West,273,10.0,18.0,69,0.00,,,0.00,21,weatherlink.com 1.10,2013-04-16 02:32:00,
2013-04-15 19:47:00,47.8,39.0,29.96,North,9,5.0,10.0,71,0.00,,,0.00,9,weatherlink.com 1.10,2013-04-16 02:47:00,
2013-04-15 20:02:00,47.0,38.0,29.97,NW,314,9.0,18.0,72,0.00,,,0.00,0,weatherlink.com 1.10,2013-04-16 03:02:00,
2013-04-15 20:17:00,46.8,39.0,29.97,NW,315,5.0,19.0,73,0.00,,,0.00,0,weatherlink.com 1.10,2013-04-16 03:17:00,
2013-04-15 20:32:00,46.6,39.0,29.98,NW,314,7.0,18.0,74,0.00,,,0.00,0,weatherlink.com 1.10,2013-04-16 03:32:00,
2013-04-15 20:47:00,46.4,39.0,29.98,NNW,333,6.0,18.0,74,0.00,,,0.00,0,weatherlink.com 1.10,2013-04-16 03:47:00,
2013-04-15 21:02:00,46.2,38.0,29.98,West,269,6.0,14.0,73,0.00,,,0.00,0,weatherlink.com 1.10,2013-04-16 04:02:00,
2013-04-15 21:17:00,45.9,38.0,29.98,West,274,8.0,10.0,73,0.00,,,0.00,0,weatherlink.com 1.10,2013-04-16 04:17:00,
2013-04-15 21:32:00,46.1,38.0,29.99,WNW,303,4.0,13.0,72,0.00,,,0.00,0,weatherlink.com 1.10,2013-04-16 04:32:00,
2013-04-15 21:47:00,46.0,37.0,30.00,NNW,333,2.0,9.0,71,0.00,,,0.00,0,weatherlink.com 1.10,2013-04-16 04:47:00,
2013-04-15 22:02:00,45.7,37.0,30.01,North,9,2.0,9.0,71,0.00,,,0.00,0,weatherlink.com 1.10,2013-04-16 05:02:00,
2013-04-15 22:17:00,44.8,36.0,30.01,NNE,24,0.0,11.0,71,0.00,,,0.00,0,weatherlink.com 1.10,2013-04-16 05:17:00,
2013-04-15 22:32:00,44.3,35.0,30.02,North,355,2.0,3.0,71,0.00,,,0.00,0,weatherlink.com 1.10,2013-04-16 05:32:00,
2013-04-15 22:47:00,43.1,35.0,30.02,North,355,2.0,3.0,74,0.00,,,0.00,0,weatherlink.com 1.10,2013-04-16 05:47:00,
2013-04-15 23:02:00,42.9,36.0,30.03,NNW,342,1.0,3.0,75,0.00,,,0.00,0,weatherlink.com 1.10,2013-04-16 06:02:00,
2013-04-15 23:17:00,43.5,36.0,30.03,WNW,282,3.0,5.0,76,0.00,,,0.00,0,weatherlink.com 1.10,2013-04-16 06:17:00,
2013-04-15 23:32:00,43.7,36.0,30.03,NNW,332,3.0,6.0,75,0.00,,,0.00,0,weatherlink.com 1.10,2013-04-16 06:32:00,
2013-04-15 23:47:00,44.4,36.0,30.02,NW,310,4.0,8.0,73,0.00,,,0.00,0,weatherlink.com 1.10,2013-04-16 06:47:00,